User: anonymous   Login
Location: Camp at the Woods
(43.2055°N, 93.0905°W)
Time: 05:31:23
(UTC+00:00)
Language:

Cosmos 2151 - Orbit

View from above orbital plane
View from above orbital plane
View from above satellite
View from above satellite

Ground track
Ground track

The orbit data is extracted from the following two-line orbital elements,

1 21422U 91042A   24108.29220388  .00005300  00000-0  47631-3 0  9998
2 21422  82.5021  28.2736 0012064 225.3047 134.7193 14.95463112759684
Epoch (UTC): 17 April 2024 07:00:46
Eccentricity: 0.0012064
inclination: 82.5021°
perigee height: 572 km
apogee height: 589 km
right ascension of ascending node: 28.2736°
argument of perigee: 225.3047°
revolutions per day: 14.95463112
mean anomaly at epoch: 134.7193°
orbit number at epoch: 75968

The dashed part of the orbit path shows where the satellite is in the earth's shadow,  

DLR